Home   Weather   Kongsvinger   Past weeks

Flag for Norway Past Weather in Kongsvinger, Norway — Yesterday and Last 2 Weeks

46 °F

Passing clouds.

Feels Like: 41 °F
Forecast: 42 / 51 °F
Wind: 12 mph from South

Location: Oslo Gardermoen Airport

Current Time: Oct 27, 2016 at 9:04:55 PM

Latest Report: Oct 27, 2016 at 8:20 PM

Visibility: N/A

Pressure: 29.80 "Hg

Humidity: 87%

Dew Point: 43 °F

Location of KongsvingerLocation

Past Weather in Kongsvinger — Graph


Kongsvinger Temperature Yesterday

Maximum temperature yesterday: 46 °F (at 11:20 PM)
Minimum temperature yesterday: 30 °F (at 5:50 AM)
Average temperature yesterday: 37 °F

High & Low Weather Summary for the Past Weeks

High46 °F (Oct 26, 11:20 PM)100% (Oct 17, 9:20 AM)30.57 "Hg (Oct 17, 9:20 AM)
Low30 °F (Oct 14, 3:50 AM)65% (Oct 13, 4:50 PM)29.80 "Hg (Oct 27, 7:50 PM)
Average39 °F86%30.30 "Hg
* Reported Oct 12 7:20 PM — Oct 27 7:50 PM, Kongsvinger, Weather by CustomWeather, © 2016

Note: Actual official high and low records may vary slightly from our data, if they occured in-between our weather recording intervals... More about our weather records


Kongsvinger Weather History for the Previous 24 Hours

Scroll right to see more
Time TempWeatherWind HumidityBarometerVisibility
7:50 PM
Thu, Oct 27
45 °FPassing clouds.15 mph93%29.80 "HgN/A
7:20 PM45 °FClear.17 mph87%29.83 "Hg10 mi
6:50 PM45 °FPassing clouds.10 mph87%29.83 "HgN/A
6:20 PM45 °FPassing clouds.12 mph87%29.86 "HgN/A
5:50 PM45 °FPassing clouds.9 mph87%29.89 "HgN/A
5:20 PM46 °FPartly sunny.13 mph82%29.89 "HgN/A
4:50 PM46 °FPartly sunny.12 mph82%29.89 "HgN/A
4:20 PM45 °FPartly sunny.9 mph87%29.89 "HgN/A
3:50 PM45 °FPartly sunny.13 mph87%29.92 "HgN/A
3:20 PM46 °FPartly sunny.13 mph82%29.92 "HgN/A
2:50 PM46 °FPartly sunny.13 mph82%29.92 "HgN/A
2:20 PM45 °FPartly sunny.10 mph87%29.95 "HgN/A
1:50 PM45 °FPartly sunny.7 mph87%29.95 "HgN/A
1:20 PM45 °FPartly sunny.7 mph81%29.95 "HgN/A
12:50 PM45 °FPartly sunny.7 mph81%29.95 "HgN/A
12:20 PM43 °FPartly sunny.8 mph87%29.95 "HgN/A
11:50 AM43 °FPartly sunny.7 mph93%29.95 "HgN/A
11:20 AM43 °FPartly sunny.7 mph93%29.95 "HgN/A
10:50 AM43 °FPartly sunny.7 mph93%29.98 "HgN/A
10:20 AM43 °FBroken clouds.5 mph93%29.98 "HgN/A
9:50 AM41 °FFog.3 mph100%29.98 "HgN/A
9:20 AM41 °FPartly sunny.3 mph100%29.98 "HgN/A
8:50 AM41 °FPartly sunny.5 mph93%29.95 "HgN/A
8:20 AM41 °FPassing clouds.6 mph93%29.95 "HgN/A
7:50 AM39 °FLight fog.3 mph100%29.95 "HgN/A
7:20 AM41 °FPassing clouds.1 mph93%29.95 "HgN/A
6:50 AM41 °FLight fog.5 mph93%29.95 "HgN/A
6:20 AM41 °FPassing clouds.8 mph100%29.95 "HgN/A
5:50 AM43 °FClear.7 mph93%29.95 "Hg10 mi
5:20 AM41 °FPassing clouds.3 mph93%29.95 "HgN/A
4:50 AM43 °FClear.6 mph93%29.92 "Hg10 mi
4:20 AM43 °FPassing clouds.3 mph93%29.95 "HgN/A
3:50 AM43 °FPassing clouds.2 mph93%29.92 "HgN/A
3:20 AM43 °FPassing clouds.5 mph87%29.92 "HgN/A
2:50 AM46 °FPassing clouds.5 mph87%29.92 "HgN/A
2:20 AM46 °FPassing clouds.7 mph93%29.92 "HgN/A
1:50 AM46 °FPartly cloudy.8 mph93%29.92 "HgN/A
1:20 AM46 °FPartly cloudy.7 mph93%29.92 "HgN/A
12:50 AM46 °FMostly cloudy.7 mph100%29.92 "Hg6 mi
12:20 AM46 °FLow clouds.9 mph93%29.92 "Hg4 mi
11:50 PM
Wed, Oct 26
46 °FFog.12 mph93%29.95 "Hg3 mi
11:20 PM46 °FLight rain. Fog.12 mph93%29.95 "Hg3 mi
10:50 PM45 °FDrizzle. Fog.14 mph100%29.95 "Hg2 mi
10:20 PM45 °FLight rain. Fog.9 mph100%29.95 "Hg3 mi
9:50 PM45 °FDrizzle. Fog.12 mph100%29.95 "Hg3 mi
9:20 PM45 °FDrizzle. Low clouds.13 mph93%29.98 "Hg4 mi
Weather by CustomWeather, © 2016

See weather overviewHow to use our weather pages